[[{"header":{"parameterUnit":"m.s-1","parameterCategory":1,"la1":30.2992,"la2":30.254,"lo1":-89.0895,"lo2":-89.0443,"dy":0.0025,"dx":0.0025,"nx":19,"ny":19,"refTime":"2026-05-10T03:00:00:Z","depth":0,"parameterNumber":2,"parameterNumberName":"U-component_of_WINDS"},"data":[0,0,0,-3.031,-3.031,-3.0308,-3.0308,-3.0329,-3.0329,0,0,0,0,0,0,0,0,0,0,0,-3.0325,-3.0325,-3.031,-3.031,-3.0308,-3.0308,-3.0329,-3.0329,0,0,0,0,0,0,0,0,0,0,0,-3.0324,-3.0325,-3.0326,-3.031,-3.0308,-3.0308,-3.0329,-3.0322,0,0,0,0,0,0,0,0,0,0,-3.032,-3.0347,-3.0325,-3.0326,-3.031,-3.0308,-3.0308,-3.0321,-3.0322,-3.034,0,-3.0359,0,-3.0345,-3.0332,-3.0332,0,0,0,-3.03,-3.0346,-3.0333,-3.0326,-3.0311,-3.0308,-3.0306,-3.0322,-3.0323,-3.0342,-3.0359,-3.0359,-3.0345,-3.0332,-3.0333,-3.047,-3.0471,0,0,-3.03,-3.0332,-3.0332,-3.0335,-3.0336,-3.0306,-3.0306,-3.0322,-3.0343,-3.0359,-3.0359,-3.0345,-3.0333,-3.0333,-3.0469,-3.047,0,0,0,-3.0307,-3.0332,-3.0318,-3.0335,-3.0332,-3.0306,-3.0306,-3.0342,-3.0335,-3.0359,-3.0346,-3.0333,-3.0333,-3.0468,-3.0469,-3.0557,0,0,0,-3.0307,-3.0336,-3.0319,-3.0338,-3.0332,-3.0337,-3.0327,-3.0334,-3.0335,-3.0345,-3.0333,-3.0334,-3.0466,-3.0469,-3.0552,-3.0594,0,0,0,-3.032,-3.0338,-3.0342,-3.034,-3.034,-3.0336,-3.0329,-3.0333,-3.0327,-3.0332,-3.0334,-3.0465,-3.0468,-3.0548,-3.0586,-3.0641,0,0,0,-3.0343,-3.0419,-3.0344,-3.0424,-3.034,-3.039,-3.0329,-3.0364,-3.0379,-3.0333,-3.0467,-3.0469,-3.0546,-3.0581,-3.0636,-3.0694,-3.072,0,0,-3.0457,-3.0434,-3.0478,-3.0411,-3.0483,-3.0388,-3.0473,-3.0456,-3.0427,-3.0458,-3.046,-3.0554,-3.0586,-3.064,-3.0856,-3.0877,0,0,0,-3.0525,-3.0558,-3.057,-3.0586,-3.0576,-3.0571,-3.0538,-3.0532,-3.0557,-3.0449,-3.0587,-3.0605,-3.0635,-3.0661,-3.0679,-3.0705,-3.0482,-3.0482,-3.0482,-3.0732,-3.0692,-3.0764,-3.0724,-3.0741,-3.0707,-3.0718,-3.0704,-3.0657,-3.0691,-3.07,-3.0836,-3.0868,-3.0881,-3.0908,-3.0726,-3.0726,-3.0727,-3.0727,-3.0896,-3.0937,-3.0875,-3.0923,-3.0881,-3.0921,-3.0892,-3.0859,-3.089,-3.0825,-3.085,-3.0784,-3.0906,-3.0927,-3.0733,-3.0732,-3.0731,-3.0731,-3.073,-3.1028,-3.1041,-3.1033,-3.1054,-3.1075,-3.1032,-3.1066,-3.1026,-3.0988,-3.1013,-3.1019,-3.1018,-3.1013,-3.1018,-3.1019,-3.1019,-3.102,-3.102,-3.102,-3.1168,-3.1157,-3.119,-3.1188,-3.1194,-3.1197,-3.1166,-3.1171,-3.1167,-3.1135,-3.1135,-3.1088,-3.0924,-3.0885,-3.1028,-3.1026,-3.1025,-3.1025,-3.1024,-3.1352,-3.1304,-3.1357,-3.1363,-3.1358,-3.1383,-3.1331,-3.1347,-3.1345,-3.1364,-3.1311,-3.1196,-3.117,-3.1155,-3.1123,-3.1318,-3.1318,-3.1318,-3.1318,-3.1465,-3.1447,-3.1493,-3.1507,-3.1516,-3.1475,-3.1538,-3.1515,-3.1484,-3.1481,-3.1447,-3.14,-3.1387,-3.1368,-3.1349,-3.1318,-3.1558,-3.1558,-3.1559,-3.1576,-3.1559,-3.1619,-3.1588,-3.1582,-3.1578,-3.1636,-3.1655,-3.161,-3.1568,-3.1479,-3.1468,-3.1392,-3.1369,-3.1325,-3.1296,-3.1239,0,0]},{"header":{"parameterUnit":"m.s-1","parameterCategory":1,"la1":30.2992,"la2":30.254,"lo1":-89.0895,"lo2":-89.0443,"dy":0.0025,"dx":0.0025,"nx":19,"ny":19,"refTime":"2026-05-10T03:00:00:Z","depth":0,"parameterNumber":3,"parameterNumberName":"V-component_of_WINDS"},"data":[0,0,0,-0.9414,-0.9414,-0.9403,-0.9403,-0.9399,-0.9399,0,0,0,0,0,0,0,0,0,0,0,-0.9424,-0.9424,-0.9414,-0.9414,-0.9403,-0.9403,-0.9399,-0.9399,0,0,0,0,0,0,0,0,0,0,0,-0.9424,-0.9424,-0.9424,-0.9414,-0.9403,-0.9403,-0.9399,-0.9403,0,0,0,0,0,0,0,0,0,0,-0.9412,-0.9429,-0.9424,-0.9424,-0.9414,-0.9403,-0.9403,-0.9403,-0.9403,-0.9408,0,-0.9416,0,-0.9407,-0.9399,-0.9399,0,0,0,-0.9408,-0.9429,-0.942,-0.9425,-0.9414,-0.9403,-0.9406,-0.9403,-0.9402,-0.9408,-0.9415,-0.9415,-0.9407,-0.9399,-0.9399,-0.9449,-0.9449,0,0,-0.9409,-0.9426,-0.942,-0.942,-0.9423,-0.9406,-0.9406,-0.9402,-0.9412,-0.9415,-0.9415,-0.9407,-0.9399,-0.9399,-0.9448,-0.9449,0,0,0,-0.9414,-0.9427,-0.9417,-0.942,-0.9417,-0.9406,-0.9406,-0.9412,-0.9407,-0.9415,-0.9407,-0.9399,-0.9399,-0.9448,-0.9449,-0.9489,0,0,0,-0.9414,-0.943,-0.9417,-0.9428,-0.9418,-0.9415,-0.9415,-0.9407,-0.9407,-0.9407,-0.9399,-0.9399,-0.9447,-0.9448,-0.9487,-0.9506,0,0,0,-0.9422,-0.943,-0.9431,-0.9429,-0.9425,-0.9414,-0.9409,-0.9407,-0.9402,-0.9399,-0.9399,-0.9447,-0.9448,-0.9485,-0.9502,-0.9524,0,0,0,-0.9436,-0.9468,-0.9432,-0.9465,-0.9425,-0.944,-0.9409,-0.9419,-0.9422,-0.9399,-0.9447,-0.9449,-0.9484,-0.95,-0.9522,-0.9545,-0.9556,0,0,-0.9486,-0.9475,-0.9492,-0.946,-0.9486,-0.944,-0.9471,-0.9457,-0.9441,-0.9447,-0.9448,-0.9488,-0.9502,-0.9523,-0.9613,-0.9622,0,0,0,-0.9514,-0.9527,-0.953,-0.9533,-0.9523,-0.9515,-0.9494,-0.9489,-0.9493,-0.9448,-0.95,-0.9508,-0.952,-0.953,-0.9538,-0.9547,-0.9454,-0.9454,-0.9454,-0.961,-0.9587,-0.9615,-0.9591,-0.9594,-0.9571,-0.9571,-0.9559,-0.9536,-0.9549,-0.9551,-0.9608,-0.9621,-0.9626,-0.9636,-0.9561,-0.9561,-0.9561,-0.9561,-0.9682,-0.9697,-0.9663,-0.9678,-0.9654,-0.9666,-0.9644,-0.9627,-0.9634,-0.9605,-0.9614,-0.9585,-0.9637,-0.9644,-0.9564,-0.9563,-0.9563,-0.9563,-0.9563,-0.9743,-0.9746,-0.9738,-0.9739,-0.9741,-0.9715,-0.9723,-0.97,-0.9678,-0.9687,-0.9686,-0.9685,-0.9682,-0.9688,-0.9688,-0.9688,-0.9688,-0.9689,-0.9689,-0.981,-0.9799,-0.9809,-0.98,-0.9798,-0.9792,-0.9768,-0.9765,-0.9755,-0.9738,-0.9738,-0.9713,-0.9646,-0.963,-0.9692,-0.9691,-0.9691,-0.9691,-0.969,-0.9892,-0.9869,-0.9885,-0.9882,-0.9868,-0.9872,-0.9841,-0.9837,-0.9831,-0.9835,-0.9807,-0.9762,-0.9749,-0.9743,-0.9729,-0.9813,-0.9813,-0.9813,-0.9813,-0.9944,-0.9934,-0.9944,-0.9942,-0.9937,-0.9911,-0.9927,-0.9908,-0.9884,-0.9879,-0.9863,-0.9843,-0.9838,-0.9828,-0.9819,-0.9807,-0.9908,-0.9908,-0.9908,-0.9993,-0.9982,-1.0001,-0.9978,-0.9964,-0.9953,-0.9968,-0.9966,-0.9934,-0.9911,-0.9874,-0.987,-0.9837,-0.9828,-0.9806,-0.9794,-0.977,0,0]}]]